カタログに戻る

STARLINK-32505

運用中通信VLEO
NORAD 63085·PAYLOAD·🇺🇸 United States

打ち上げ Feb 23, 2025 から Vandenberg Space Force Base

Loading…

次のパス (今後24時間)

TLE

最新Source: CelesTrak SupGP

元期: Sep 15, 2026, 03:10 UTC

1 63085C 25037J   26258.13243056 -.00051230  00000+0 -17823-2 0  2589
2 63085  70.0016 235.3733 0003128 268.3933 124.7894 15.29602665    10

AllMySatでSTARLINK-32505をリアルタイム追跡

Download on the App Store